Probability
0 0 0 0 0 0 0 0 0 0 0 0 0 0 0 0 0 0 0 0 0 0 0 0 0 0 0 0 0 0 0 0 0 0 0 0 0 0 0 0 0 0 0
0 0 0 0 0 0 0 0 0 0 0 0 0 0 0 0 0 0 0 0 0 0 0 0 0 0 0 0 0 0 0 0 0 0 0 0 0 0 0 0 0 0 0
0 0 0 0 0 0 0 0 0 0 0 0 0 0 0 0 0 0 0 0 0 0 0 0 0 0 0 0 0 0 0 0 0 0 0 0 0 0 0 0 0 0 0
0 0 0 0 0 0 0 0 0 0 0 0 0 0 0 0 0 0 0 0 0 0 0 0 0 0 0 0 0 0 0 0 0 0 0 0 0 0 0 0 0 0 0
0 0 0 0 0 0 0 0 0 0 0 0 0 0 0 0 0 0 0 0 0 0 0 0 0 0 0 0 0 0 0 0 0 0 0 0 0 0 0 0 0 0 0
0 0 0 0 0 0 0 0 0 0 0 0 0 0 0 0 0 0 0 0 0 0 0 0 0 0 0 0 0 0 0 0 0 0 0 0 0 0 0 0 0 0 0
0 0 0 0 0 0 0 0 0 0 0 0 0 0 0 0 0 0 0 0 0 0 0 0 0 0 0 0 0 0 0 0 0 0 0 0 0 0 0 0 0 0 0
0 0 0 0 0 0 0 0 0 0 0 0 0 0 0 0 0 0 0 0 0 0 0 0 0 0 0 0 0 0 0 0 0 0 0 0 0 0 0 0 0 0 0
0 0 0 0 0 0 0 0 0 0 0 0 0 0 0 0 0 0 0 0 0 0 0 0 0 0 0 0 0 0 0 0 0 0 0 0 0 0 0 0 0 0 0
0 0 0 0 0 0 0 0 0 0 0 0 0 0 0 0 0 0 0 0 0 0 0 0 0 0 0 0 0 0 0 0 0 0 0 0 0 0 0 0 0 0 0
0 0 0 0 0 0 0 0 0 0 0 0 0 0 0 0 0 0 0 0 0 0 0 0 0 0 0 0 0 0 0 0 0 0 0 0 0 0 0 0 0 0 0
0 0 0 0 0 0 0 0 0 0 0 0 0 0 0 0 0 0 0 0 0 0 0 0 0 0 0 0 0 0 0 0 0 0 0 0 0 0 0 0 0 0 0
0 0 0 0 0 0 0 0 0 0 0 0 0 0 0 0 0 0 0 0 0 0 0 0 0 0 0 0 0 0 0 0 0 0 0 0 0 0 0 0 0 0 0
0 0 0 0 0 0 0 0 0 0 0 0 0 0 0 0 0 0 0 0 0 0 0 0 0 0 0 0 0 0 0 0 0 0 0 0 0 0 0 0 0 0 0
0 0 0 0 0 0 0 0 0 0 0 0 0 0 0 0 0 0 0 0 0 0 0 0 0 0 0 0 0 0 0 0 0 0 0 0 0 0 0 0 0 0 0
0 0 0 0 0 0 0 0 0 0 0 0 0 0 0 0 0 0 0 0 0 0 0 0 0 0 0 0 0 0 0 0 0 0 0 0 0 0 0 0 0 0 0
0 0 0 0 0 0 0 0 0 0 0 0 0 0 0 0 0 0 0 0 0 0 0 0 0 0 0 0 0 0 0 0 0 0 0 0 0 0 0 0 0 0 0
0 0 0 0 0 0 0 0 0 0 0 0 0 0 0 0 0 0 0 0 0 0 0 0 0 0 0 0 0 0 0 0 0 0 0 0 0 0 0 0 0 0 0
0 0 0 0 0 0 0 0 0 0 0 0 0 0 0 0 0 0 0 0 0 0 0 0 0 0 0 0 0 0 0 0 0 0 0 0 0 0 0 0 0 0 0
0 0 0 0 0 0 0 0 0 0 0 0 0 0 0 0 0 0 0 0 0 0 0 0 0 0 0 0 0 0 0 0 0 0 0 0 0 0 0 0 0 0 0
0 0 0 0 0 0 0 0 0 0 0 0 0 0 0 0 0 0 0 0 0 0 0 0 0 0 0 0 0 0 0 0 0 0 0 0 0 0 0 0 0 0 0
0 0 0 0 0 0 0 0 0 0 0 0 0 0 0 0 0 0 0 0 0 0 0 0 0 0 0 0 0 0 0 0 0 0 0 0 0 0 0 0 0 0 0
0 0 0 0 0 0 0 0 0 0 0 0 0 0 0 0 0 0 0 0 0 0 0 0 0 0 0 0 0 0 0 0 0 0 0 0 0 0 0 0 0 0 0
0 0 0 0 0 0 0 0 0 0 0 0 0 0 0 0 0 0 0 0 0 0 0 0 0 0 0 0 0 0 0 0 0 0 0 0 0 0 0 0 0 0 0
0 0 0 0 0 0 0 0 0 0 0 0 0 0 0 0 0 0 0 0 0 0 0 0 0 0 0 0 0 0 0 0 0 0 0 0 0 0 0 0 0 0 0
0 0 0 0 0 0 0 0 0 0 0 0 0 0 0 0 0 0 0 0 0 0 0 0 0 0 0 0 0 0 0 0 0 0 0 0 0 0 0 0 0 0 0
Wind_Speed
6 8 17 18 18 17 16 15 14 13 12 12 12 12 12 12 12 13 13 13 14 14 14 14 14 14 15 15 16 16 16 17 17 17 17 16 16 16 16 15 14 9 17
10 10 18 19 19 18 17 16 15 13 13 12 12 12 12 12 12 12 13 13 13 13 13 13 13 13 14 14 15 15 15 16 16 16 16 14 14 15 15 15 14 10 16
12 12 15 20 19 19 18 17 15 14 13 13 12 12 12 12 12 12 12 13 13 13 13 13 12 13 13 13 14 14 15 15 15 15 14 8 7 14 14 14 14 14 14
14 11 11 20 20 19 19 17 16 15 14 13 13 12 12 12 12 12 12 12 13 13 13 13 12 12 12 12 13 13 14 14 14 13 7 6 6 11 13 13 13 13 13
12 9 13 21 21 20 19 18 17 15 14 13 13 12 12 12 12 12 12 12 12 13 12 12 12 12 12 12 12 13 13 13 13 10 6 6 5 10 12 12 12 12 11
11 9 12 21 21 20 20 19 17 16 15 14 13 12 12 12 12 12 12 12 12 12 12 11 11 11 11 11 12 12 12 11 9 6 6 6 5 9 11 10 10 10 10
11 8 11 20 21 20 20 19 18 17 15 14 13 12 12 12 12 11 11 11 11 11 11 11 10 10 10 10 11 11 10 9 5 5 5 5 5 9 9 9 9 9 8
11 9 10 20 20 20 20 19 18 17 16 15 14 13 12 12 12 11 11 10 10 10 10 9 9 9 9 9 9 9 8 7 5 4 4 4 6 8 9 9 8 8 8
9 8 8 10 14 18 19 19 18 17 16 15 14 13 12 12 12 11 10 10 9 9 9 8 8 8 8 8 8 8 7 7 4 2 3 3 6 8 9 9 9 9 9
7 7 7 7 9 10 12 17 17 17 16 16 14 12 12 11 10 11 9 9 8 8 7 7 7 6 7 7 7 7 7 6 3 2 2 3 7 8 8 8 8 8 8
10 7 7 7 8 8 8 12 14 15 15 14 12 12 10 5 5 6 6 8 8 7 6 5 5 6 6 6 6 7 6 2 2 1 2 5 6 7 8 8 8 8 8
16 12 8 8 9 9 8 7 6 7 8 7 6 7 5 4 4 5 6 6 6 5 5 4 5 6 6 3 4 5 2 2 1 1 2 5 6 6 7 8 8 8 8
16 14 12 10 9 9 7 6 4 4 5 6 7 7 5 4 3 3 2 2 2 3 3 3 4 3 3 2 2 2 1 1 1 1 3 5 5 5 7 8 8 8 8
13 15 13 12 11 10 8 6 6 5 5 5 6 8 6 4 3 3 2 2 1 1 2 2 2 2 2 2 2 2 1 1 1 1 2 4 4 5 6 7 8 8 8
14 15 14 14 13 11 9 7 7 7 6 6 6 7 7 5 5 4 3 2 2 2 2 1 1 1 2 2 2 1 1 1 1 1 2 4 4 4 5 6 7 8 8
15 16 15 16 15 13 11 9 8 7 7 7 7 7 8 6 5 5 4 3 2 2 2 2 2 1 1 1 2 2 2 1 1 1 1 3 5 5 5 6 7 8 8
16 15 16 16 16 15 13 11 8 8 8 8 7 8 8 7 7 6 4 4 3 3 3 2 2 2 1 1 2 2 2 1 1 1 2 2 3 5 6 6 7 7 8
12 14 16 14 16 17 14 11 9 8 9 7 7 8 9 9 8 6 5 5 4 3 3 3 2 2 1 1 1 1 2 1 2 1 2 2 2 2 4 7 7 7 8
14 15 16 16 17 17 15 11 9 8 9 8 7 8 9 10 9 7 6 5 5 4 3 3 2 2 1 1 1 1 2 2 1 2 2 2 2 2 2 5 7 7 8
12 13 15 16 15 14 11 8 7 8 8 8 8 9 11 10 10 8 6 6 6 4 4 3 3 2 2 2 2 2 2 2 2 2 2 2 2 2 2 3 3 5 7
11 13 16 17 16 14 12 12 12 12 11 10 9 10 12 11 11 9 6 6 6 6 6 6 3 3 2 2 2 2 2 2 2 2 1 1 2 2 2 2 2 2 3
14 16 17 18 17 17 15 14 11 9 7 7 7 9 11 12 12 10 9 7 7 6 6 6 4 3 2 2 3 2 1 2 2 2 2 1 1 1 1 2 1 1 1
14 16 16 18 19 19 16 9 7 5 4 6 9 10 12 13 12 11 11 9 8 7 7 7 6 6 4 2 1 3 3 3 2 2 1 1 1 1 1 1 1 1 1
15 14 15 17 17 17 16 14 16 13 12 13 10 10 10 12 12 12 11 10 9 7 7 7 6 5 5 3 2 1 2 3 3 1 2 2 2 1 1 1 1 1 1
11 11 13 14 15 15 17 18 18 14 11 7 6 10 10 10 11 12 11 10 10 8 8 8 7 6 5 5 4 3 2 1 2 2 2 3 2 2 2 1 1 1 1
7 8 10 12 13 15 17 18 18 16 12 11 10 12 10 7 8 11 11 10 10 8 9 9 8 8 6 5 4 4 4 4 3 3 3 2 2 3 2 2 2 2 2
Wind_Direction
186 185 177 160 153 149 144 140 136 132 128 123 118 113 110 104 99 96 92 90 86 83 81 81 79 80 78 77 74 71 69 66 63 59 56 59 62 61 59 57 53 42 49
158 172 174 162 156 151 146 142 138 134 130 125 121 118 116 112 105 100 98 94 91 87 84 83 82 82 81 79 77 75 73 70 66 61 53 45 56 63 60 57 55 52 51
153 167 171 163 159 153 148 143 140 138 135 130 127 123 119 115 111 106 102 98 94 91 88 86 86 85 83 79 79 78 76 73 69 60 47 27 33 62 61 58 56 54 52
155 163 165 163 158 154 149 145 144 142 139 134 131 128 125 120 115 110 106 102 98 94 91 89 89 89 86 83 82 81 78 75 69 57 36 21 14 62 60 58 57 55 53
155 160 166 162 159 156 152 149 148 145 142 139 136 133 128 123 118 112 108 105 101 98 95 93 92 91 89 86 85 83 79 74 63 48 29 19 8 59 60 57 55 55 53
154 158 167 163 162 159 156 153 151 150 147 145 141 137 132 128 121 116 112 108 104 102 100 97 94 93 91 88 86 84 81 75 58 40 26 12 357 52 57 54 52 51 50
156 158 168 166 165 161 159 157 155 154 152 149 146 142 138 133 126 121 118 114 110 107 103 99 96 95 91 89 88 86 84 79 66 43 22 2 358 50 52 47 43 41 42
156 158 168 170 167 164 163 161 159 158 157 154 151 148 142 137 134 130 126 122 117 111 105 101 99 96 91 88 88 87 85 80 63 40 13 350 10 42 44 39 33 30 29
153 157 169 170 169 169 166 165 163 162 160 158 156 152 147 144 142 138 133 128 122 114 109 105 102 99 93 89 86 84 85 84 71 28 359 337 8 30 34 31 25 20 19
156 163 169 166 163 164 166 167 165 165 164 162 159 153 149 150 149 143 138 136 129 123 118 110 103 97 90 86 80 76 79 72 59 25 349 328 1 19 26 25 20 15 12
173 177 173 167 162 159 161 169 166 167 168 165 160 154 147 133 128 133 142 147 142 133 126 115 104 93 81 68 66 70 70 61 50 8 331 326 357 12 22 21 17 14 15
185 186 180 173 166 163 167 165 162 162 163 156 148 145 132 128 130 132 157 159 151 139 127 110 92 75 68 52 49 60 61 56 41 335 311 326 349 3 14 18 20 21 20
184 185 185 179 171 169 167 161 158 154 152 149 148 143 138 133 132 125 130 142 120 105 80 71 59 55 59 56 47 49 56 53 15 323 316 327 342 356 8 15 20 24 23
182 189 186 182 178 176 170 167 163 160 159 159 158 151 145 144 145 146 143 137 119 104 103 82 74 63 55 47 45 41 34 30 5 334 315 338 354 358 11 15 22 24 25
187 190 189 186 185 181 175 175 173 172 169 164 162 161 158 158 162 160 157 155 157 144 137 127 113 82 62 44 33 40 34 23 15 7 340 357 14 18 24 26 27 27 31
193 192 190 192 190 185 185 183 180 176 169 167 170 170 166 165 166 165 165 168 176 170 160 151 148 125 94 62 37 41 43 28 20 18 12 8 25 35 33 31 32 30 27
194 191 192 193 192 192 191 187 182 178 174 177 177 173 173 171 171 169 168 177 184 170 156 138 127 108 97 77 53 34 32 23 38 39 39 32 20 31 38 37 33 26 24
188 190 193 193 195 196 195 190 186 182 181 182 178 178 179 178 173 170 174 185 178 162 155 146 135 119 104 87 59 20 15 19 36 48 56 52 44 32 29 42 33 27 21
191 190 192 194 196 198 196 191 187 182 186 184 180 182 184 183 177 174 181 183 167 160 160 155 133 139 137 118 92 39 18 21 20 57 67 62 64 61 41 32 33 30 21
194 192 193 196 197 194 191 186 184 186 190 188 188 188 185 186 182 177 180 177 165 160 160 154 140 121 122 127 90 50 22 22 33 53 65 63 62 67 60 47 31 19 18
194 193 194 195 195 188 190 192 194 198 195 194 193 189 187 186 184 182 181 174 172 175 174 161 142 138 123 121 100 39 11 28 45 35 44 63 52 48 59 54 41 27 5
199 198 198 198 194 191 195 196 197 191 190 190 187 190 190 188 186 186 183 180 179 171 166 164 151 140 131 135 135 116 10 344 1 20 23 56 38 22 34 35 36 26 12
204 202 200 200 196 195 192 179 162 149 149 177 192 195 195 192 189 187 186 181 179 174 178 177 168 156 157 149 140 146 157 219 287 326 347 4 352 356 345 345 11 359 359
210 204 202 199 196 193 184 181 181 187 193 196 190 190 188 190 190 188 185 183 181 180 178 179 173 164 150 158 147 107 139 152 155 284 314 322 327 307 306 315 331 322 333
207 200 200 196 194 188 186 188 190 196 197 178 166 176 184 189 190 188 186 184 183 183 181 175 170 171 164 160 161 153 134 96 127 161 254 301 320 298 283 274 262 262 277
195 191 189 189 191 187 188 189 193 194 183 170 174 182 185 184 187 189 186 185 185 182 181 179 177 175 174 164 162 160 159 161 177 171 202 242 271 288 297 282 251 244 246